Simultaneous Nadir Overpasses (SNOs) Predictions

Prediction of SNOs between GOES-15 and TERRA Satellite Orbit:

Table of predicted SNOs for the next 14.0 days since TLE Epoch: 12/2/2023
Index Date Time (GOES-15) GOES-15 Lat,Lon TERRA Lat,Lon Distance(km) Time Diff (sec)
1 12/03/2023 17:50:50 0.17, 61.30 0.21, 61.41 13.15 80
2 12/05/2023 17:34:04 0.17, 61.26 1.05, 65.46 476.99 80
3 12/06/2023 05:54:09 -0.16, 61.17 -0.00, 60.58 68.50 80
4 12/08/2023 05:40:03 -0.16, 61.13 -0.89, 64.62 396.08 80
5 12/08/2023 18:00:15 0.15, 61.19 -0.18, 59.71 168.13 80
6 12/10/2023 17:40:48 0.15, 61.16 0.69, 63.76 295.27 80
7 12/11/2023 06:00:53 -0.14, 61.10 0.33, 58.88 251.89 80
8 12/13/2023 05:46:45 -0.14, 61.07 -0.53, 62.93 211.42 80
9 12/13/2023 18:06:56 0.13, 61.12 -0.52, 58.03 351.63 80
10 12/15/2023 17:47:27 0.12, 61.11 0.33, 62.09 110.54 80
